Regional Weather Roundup
Issued by NWS

Home | Current Version | Previous Version | Text Only | Print | Product List | Glossary Off
Versions: 1 2 3 4 5 6 7 8 9 10 11 12 13 14 15 16 17 18 19 20 21 22 23 24 25 26 27 28 29 30 31 32 33 34 35 36 37 38 39 40 41 42 43 44 45 46 47 48 49 50

000
ASUS45 KBOU 032307
RWRCO

WEATHER ROUNDUP FOR COLORADO
NATIONAL WEATHER SERVICE DENVER/BOULDER CO
500 PM MDT SUN MAY 03 2015

NOTE: "FAIR" INDICATES FEW OR NO CLOUDS BELOW 12000 FEET WITH NO
SIGNIFICANT WEATHER AND/OR OBSTRUCTIONS TO VISIBILITY.

COZ001>005-013-030-031-040000-
...NORTHWEST COLORADO...

CITY           SKY/WX    TMP DP  RH WIND       PRES   REMARKS
CRAIG          CLOUDY    68  34  28 S14       29.97F
HAYDEN         CLOUDY    61  30  31 SW17G24   30.00F
MEEKER         PTSUNNY   63  38  39 SE16      30.01F
MOUNT WERNER   NOT AVBL
STEAMBOAT SPGS CLOUDY    64  32  31 SW8       30.02S
WALDEN         CLOUDY    54  28  37 N13G20    30.09F
$$

COZ006>008-011-040000-
...WEST CENTRAL VALLEYS...

CITY           SKY/WX    TMP DP  RH WIND       PRES   REMARKS
GRAND JUNCTION CLOUDY    70  34  26 S17G28    29.91R
MONTROSE       CLOUDY    69  32  25 E14G26    29.97F
EAGLE          PTSUNNY   64  34  32 N7        30.03R
RIFLE          PTSUNNY   72  36  26 NE14      29.96F
DELTA          CLOUDY    76  33  20 SE6       29.94F
NUCLA          CLOUDY    73  32  21 W13G18    29.99F THUNDER
$$

COZ017>023-064>068-040000-
...SOUTHWEST COLORADO...

CITY           SKY/WX    TMP DP  RH WIND       PRES   REMARKS
DURANGO        PTSUNNY   64  35  34 W28G33    30.04R
CORTEZ         MOSUNNY   65  38  36 W3        30.03F
PAGOSA SPRINGS PTSUNNY   60  33  36 NE8       30.09F THUNDER
TELLURIDE      TSTM      50  36  59 SW14G23   30.16R
WOLF CREEK PAS NOT AVBL
$$

COZ009-010-012-014-032>034-037-058>063-040000-
...CENTRAL COLORADO...

CITY           SKY/WX    TMP DP  RH WIND       PRES   REMARKS
ASPEN          LGT RAIN  48  39  71 S22G28    30.13R
BUENA VISTA    NOT AVBL
COPPER MTN     CLOUDY    41  30  65 NW13G18   30.29S
BERTHOUD PASS  LGT SNOW  30  21  69 SE6       30.34S WCI  24
COTTONWOOD PAS CLOUDY    46  30  53 W16G22    30.21F
GUNNISON       CLOUDY    46  36  66 N13G21    30.18R
KREMMLING      LGT RAIN  55  32  41 S6        30.08F
LEADVILLE      CLOUDY    44  29  55 CALM      30.19F
MONARCH PASS   CLOUDY    36  32  87 N12       30.41S
SALIDA         CLOUDY    61  32  34 W21G28    30.17R
SUNLIGHT       PTSUNNY   45  32  61 SW3       30.26S
WILKERSON PASS CLOUDY    37  32  81 NW6       30.31F
$$

COZ069>075-040000-
...SAN LUIS VALLEY/SANGRE DE CRISTO MOUNTAINS...

CITY           SKY/WX    TMP DP  RH WIND       PRES   REMARKS
ALAMOSA        CLOUDY    62  30  29 N22       30.07R
LA VETA PASS   CLOUDY    45  32  61 SE7       30.22R
SAGUACHE       CLOUDY    57  32  38 NW14      30.10R
$$

COZ035-036-038>040-040000-
...NORTHERN COLORADO FRONT RANGE...

CITY           SKY/WX    TMP DP  RH WIND       PRES   REMARKS
DENVER INTL AP CLOUDY    61  41  47 NW17G26   30.01R THUNDER
DMNS CITY PARK   N/A     62  38  42 N9G24     30.01R
AURORA         PTSUNNY   62  43  49 NW24      30.03R
FRONT RANGE AP CLOUDY    64  43  45 N21G30    29.99R
ERIE MUNI ARPT DRIZZLE   61  43  52 W8        30.00R
BOULDER MUN AP DRIZZLE   57  41  54 W13G23    30.00F
CENTENNIAL     CLOUDY    65  39  38 SW7       30.01R
BROOMFIELD     CLOUDY    59  41  51 NW18G25   30.02R
FORT COLLINS   CLOUDY    61  45  55 S7        30.02R
LONGMONT       CLOUDY    62  41  47 W12       30.01S
$$

COZ041-046-047-076>085-087-088-040000-
...PIKES PEAK/PALMER DIVIDE AND SOUTHERN FOOTHILLS...

CITY           SKY/WX    TMP DP  RH WIND       PRES   REMARKS
COLO. SPRINGS  CLOUDY    67  35  30 SE25      30.01S
A. F. ACADEMY  CLOUDY    65  33  30 NW7       30.03R
ELLICOTT       CLOUDY   N/A N/A N/A SE16      30.02F
FALCON         CLOUDY    63  32  31 SE26G32   30.06S
FORT CARSON    CLOUDY    66  37  34 E17G25    29.98S
LIMON          LGT RAIN  68  29  23 VRB7G21   29.98R
MONUMENT HILL  CLOUDY    64  32  29 CALM      30.05S
TRINIDAD       CLOUDY    64  39  39 W22G30    29.98R
$$

COZ042>045-048>051-090-091-040000-
...NORTHEAST COLORADO...

CITY           SKY/WX    TMP DP  RH WIND       PRES   REMARKS
GREELEY ARPT   CLOUDY    59  45  58 NE17G23   30.01S THUNDER
AKRON          MOSUNNY   72  38  29 NE14      29.93R
BURLINGTON     MOSUNNY   79  37  22 NE6       29.88F
WRAY           SUNNY     82  33  17 N9        29.87S
STERLING       MOSUNNY   70  45  40 NE10      29.92R
HOLYOKE        NOT AVBL
FORT MORGAN    MOSUNNY   67 -28   2 NE13      29.96R
$$

COZ086-089-092>099-040000-
...SOUTHEAST COLORADO...

CITY           SKY/WX    TMP DP  RH WIND       PRES   REMARKS
PUEBLO         CLOUDY    74  36  25 S17G28    29.91R
LA JUNTA       PTSUNNY   82  32  16 SE9       29.83F
LAMAR          PTSUNNY   79  40  24 S12G18    29.81S
SPRINGFIELD      N/A     76  40  27 E13       29.86F
$$



USA.gov is the U.S. government's official web portal to all federal, state and local government web resources and services.